Regional Weather Roundup
Issued by NWS

Home | Current Version | Previous Version | Text Only | Print | Product List | Glossary Off
Versions: 1 2 3 4 5 6 7 8 9 10 11 12 13 14 15 16 17 18 19 20 21 22 23 24 25 26 27 28 29 30 31 32 33 34 35 36 37 38 39 40 41 42 43 44 45 46 47 48 49 50

278
ASUS44 KJAN 221010
RWRMS

MISSISSIPPI HOURLY WEATHER ROUNDUP
NATIONAL WEATHER SERVICE JACKSON MS
500 AM CDT WED OCT 22 2014

NOTE: "FAIR: INDICATES FEW OR NO CLOUDS BELOW 12,000 FEET WITH NO
SIGNIFICANT WEATHER AND/OR OBSTRUCTIONS TO VISIBILITY.

MSZ001>002-007>008-010>013-018>021-025>028-034>036-221100-
NORTHWEST MISSISSIPPI

CITY           SKY/WX    TMP DP  RH WIND       PRES   REMARKS
CLARKSDALE     FAIR      50  48  93 N7        30.14S
CLEVELAND      FAIR      51  49  93 NE6       30.11R
GREENWOOD      CLEAR     53  47  79 E6        30.11R
GREENVILLE     CLEAR     51  48  89 NE6       30.10S
GRENADA          N/A    N/A N/A N/A MISG        N/A
OLIVE BRANCH   CLEAR     46  46 100 NE5       30.16R
OXFORD         FAIR      48  45  87 NE5       30.15R
TUNICA         SUNNY     46  45  93 NE6       30.16R
$$

MSZ003>006-009-014>017-022>024-029>033-037>039-221100-
NORTHEAST MISSISSIPPI

CITY           SKY/WX    TMP DP  RH WIND       PRES   REMARKS
COLUMBUS AFB   CLEAR     48  47  97 N5        30.11R
CORINTH        FAIR      45  43  93 CALM      30.16R FOG
GOLDN TRIANGLE CLEAR     48  43  81 N6        30.11R
STARKVILLE     FAIR      50  46  87 N3        30.11R
TUPELO         CLEAR     48  45  89 NE7       30.13R
$$

MSZ040-058-221100-
CENTRAL MISSISSIPPI

CITY           SKY/WX    TMP DP  RH WIND       PRES   REMARKS
JACKSON INTL   CLEAR     50  48  93 CALM      30.09R FOG
JACKSON HAWKNS CLEAR     53  50  89 CALM      30.09R
MERIDIAN KEY   CLEAR     48  47  96 N6        30.08S
MERIDIAN NAS   CLEAR     48  46  93 CALM      30.09R
RAYMOND        FAIR      48  45  87 MISG      30.09R HAZE
VICKSBURG      CLEAR     50  49  96 CALM      30.09R
$$

MSZ059>079-221100-
SOUTH MISSISSIPPI

CITY           SKY/WX    TMP DP  RH WIND       PRES   REMARKS
BROOKHAVEN     FAIR      54  54 100 CALM      30.09S FOG
HATTIESBURG    CLEAR     51  50  96 CALM      30.07R
MCCOMB         CLEAR     60  53  77 NE5       30.07R
NATCHEZ        CLEAR     54  50  87 CALM      30.08R
PINE BELT      CLEAR     55  48  76 N7        30.08R
$$

MSZ080>082-221100-
COASTAL MISSISSIPPI

CITY           SKY/WX    TMP DP  RH WIND       PRES   REMARKS
BILOXI         CLEAR     59  55  85 NE5       30.03R
PASCAGOULA     CLEAR     53  52  96 CALM      30.03R
GULFPORT       CLEAR     59  54  83 N6        30.03R
$$



USA.gov is the U.S. government's official web portal to all federal, state and local government web resources and services.